1483480800.21,27194,8.63,72270.0,-12.77,-15.67,-15.95,0,*67
1483480801.42,27195,8.63,72270.3,-12.77,-15.67,-15.95,0,*66
1483480802.63,27196,8.63,72274.3,-12.77,-15.71,-15.99,0,*6E
1483480803.87,27197,8.63,72260.3,-12.77,-15.81,-15.99,0,*60
1483480805.11,27198,8.63,72278.3,-12.77,-15.85,-15.99,0,*6B
1483480806.35,27199,8.69,72280.0,-12.77,-15.85,-15.95,0,*66
1483480807.61,27200,8.69,72270.0,-12.77,-15.85,-16.09,0,*63
1483480808.88,27201,8.69,72280.5,-12.77,-15.85,-16.23,0,*6A
1483480810.12,27202,8.63,72270.8,-12.77,-15.85,-15.95,0,*67
1483480811.36,27203,8.63,72274.3,-12.77,-15.67,-15.81,0,*6F
1483480812.58,27204,8.69,72268.5,-12.77,-15.53,-15.75,0,*64
1483480813.82,27205,8.69,72260.0,-12.77,-15.57,-15.71,0,*65
1483480815.03,27206,8.69,72264.3,-12.77,-15.53,-15.67,0,*65
1483480816.24,27207,8.63,72256.0,-12.77,-15.53,-15.71,0,*63
1483480817.51,27208,8.63,72260.8,-12.75,-15.49,-15.81,0,*6A
1483480818.72,27209,8.69,72254.3,-12.77,-15.53,-15.67,0,*6A
1483480819.96,27210,8.69,72258.5,-12.77,-15.71,-15.85,0,*6E
1483480821.2,27211,8.63,72264.5,-12.77,-15.67,-15.85,0,*68
1483480822.46,27212,8.69,72252.0,-12.77,-15.81,-15.85,0,*63
1483480823.73,27213,8.63,72260.8,-12.75,-15.63,-15.81,0,*68
1483480824.97,27214,8.69,72260.0,-12.77,-15.67,-15.81,0,*69
1483480826.18,27215,8.69,72258.3,-12.77,-15.67,-15.99,0,*61
1483480827.4,27216,8.69,72280.0,-12.77,-15.71,-15.95,0,*69
1483480828.63,27217,8.69,72266.5,-12.77,-15.81,-15.99,0,*6B
1483480829.87,27218,8.69,72258.8,-12.77,-15.71,-16.09,0,*61
1483480831.14,27219,8.63,72274.3,-12.77,-15.85,-16.09,0,*6B
1483480832.38,27220,8.63,72284.8,-12.77,-15.95,-16.09,0,*60
1483480833.6,27221,8.69,72284.0,-12.77,-15.95,-15.99,0,*6B
1483480834.84,27222,8.63,72286.5,-12.77,-15.95,-16.09,0,*62
1483480836.11,27223,8.69,72288.5,-12.77,-15.85,-16.09,0,*62
1483480837.32,27224,8.69,72294.0,-12.77,-15.95,-15.99,0,*6E
1483480838.59,27225,8.69,72276.0,-12.79,-15.95,-16.09,0,*6B
1483480839.86,27226,8.69,72280.3,-12.79,-15.95,-16.13,0,*63
1483480841.12,27227,8.69,72286.8,-12.79,-15.95,-16.23,0,*61
1483480842.37,27228,8.69,72284.3,-12.81,-15.95,-16.13,0,*6A
1483480843.63,27229,8.63,72282.5,-12.79,-15.95,-16.13,0,*6C
1483480844.87,27230,8.69,72268.3,-12.81,-15.95,-16.13,0,*63
1483480846.14,27231,8.69,72272.8,-12.79,-15.95,-16.13,0,*65
1483480847.39,27232,8.63,72276.5,-12.81,-15.95,-16.09,0,*6A
1483480848.66,27233,8.63,72280.5,-12.79,-15.95,-16.13,0,*67
1483480849.92,27234,8.63,72276.8,-12.79,-15.85,-15.99,0,*60
1483480851.22,27235,8.69,72288.3,-12.79,-15.85,-16.09,0,*6B
1483480852.46,27236,8.69,72290.8,-12.81,-15.95,-16.13,0,*65
1483480853.73,27237,8.63,72274.5,-12.79,-15.95,-16.13,0,*63
1483480855.02,27238,8.63,72266.3,-12.79,-15.85,-16.23,0,*6E
1483480856.29,27239,8.63,72268.3,-12.79,-15.95,-16.13,0,*6D
1483480857.52,27240,8.69,72282.8,-12.81,-15.99,-16.13,0,*68
1483480858.77,27241,8.63,72276.8,-12.81,-15.95,-16.13,0,*65
1483480860.04,27242,8.69,72270.5,-12.81,-15.85,-16.09,0,*6C
1483480861.28,27243,8.63,72268.5,-12.81,-15.81,-15.95,0,*6F
1483480862.51,27244,8.69,72284.3,-12.81,-15.81,-15.99,0,*64
1483480863.75,27245,8.63,72278.0,-12.81,-15.85,-15.99,0,*61
1483480864.99,27246,8.63,72276.5,-12.81,-15.85,-15.99,0,*62
1483480866.23,27247,8.69,72286.3,-12.81,-15.85,-15.99,0,*63
1483480867.48,27248,8.63,72274.0,-12.81,-15.95,-16.09,0,*67
1483480868.69,27249,8.63,72256.3,-12.81,-15.95,-15.99,0,*6C
1483480869.91,27250,8.63,72252.8,-12.81,-15.71,-15.99,0,*6E
1483480871.15,27251,8.69,72264.0,-12.79,-15.71,-15.99,0,*68
1483480872.39,27252,8.63,72248.0,-12.81,-15.53,-15.81,0,*65
1483480873.66,27253,8.63,72256.8,-12.81,-15.57,-15.81,0,*60
1483480874.9,27254,8.69,72258.0,-12.79,-15.67,-15.95,0,*66
1483480876.14,27255,8.63,72256.8,-12.81,-15.81,-15.95,0,*68
1483480877.38,27256,8.63,72262.5,-12.81,-15.71,-15.85,0,*65
1483480878.63,27257,8.63,72258.3,-12.81,-15.71,-15.85,0,*64
1483480879.9,27258,8.69,72260.0,-12.79,-15.53,-15.81,0,*68
1483480881.17,27259,8.69,72254.0,-12.79,-15.67,-15.81,0,*6E
1483480882.38,27260,8.63,72262.8,-12.81,-15.53,-15.67,0,*6C
1483480883.6,27261,8.63,72256.5,-12.81,-15.53,-15.67,0,*6D
1483480884.83,27262,8.63,72270.5,-12.79,-15.49,-15.67,0,*62
1483480886.1,27263,8.69,72268.8,-12.79,-15.67,-15.81,0,*67
1483480887.35,27264,8.63,72268.0,-12.81,-15.71,-15.85,0,*64
1483480888.62,27265,8.69,72270.0,-12.79,-15.67,-15.81,0,*61
1483480889.83,27266,8.69,72270.3,-12.81,-15.71,-15.95,0,*67
1483480891.08,27267,8.69,72274.3,-12.81,-15.85,-15.95,0,*6D
1483480892.29,27268,8.69,72272.8,-12.81,-15.71,-15.99,0,*65
1483480893.53,27269,8.63,72268.8,-12.81,-15.81,-15.99,0,*6B
1483480894.77,27270,8.69,72282.8,-12.79,-15.71,-15.99,0,*6B
1483480896.01,27271,8.69,72270.0,-12.79,-15.71,-15.95,0,*66
1483480897.25,27272,8.69,72284.3,-12.81,-15.81,-15.95,0,*6D
1483480898.5,27273,8.69,72280.5,-12.81,-15.81,-15.95,0,*6C
1483480899.74,27274,8.69,72274.0,-12.79,-15.67,-15.95,0,*64
1483480901.01,27275,8.69,72272.3,-12.79,-15.67,-15.81,0,*60
1483480902.25,27276,8.69,72266.0,-12.81,-15.67,-15.85,0,*60
1483480903.46,27277,8.63,72268.0,-12.81,-15.53,-15.67,0,*6A
1483480904.73,27278,8.69,72276.5,-12.79,-15.67,-15.81,0,*6D
1483480906.0,27279,8.69,72274.3,-12.79,-15.67,-15.85,0,*68
1483480907.25,27280,8.69,72270.3,-12.81,-15.71,-15.81,0,*6A
1483480908.49,27281,8.69,72282.5,-12.81,-15.71,-15.85,0,*6F
1483480909.76,27282,8.63,72280.8,-12.79,-15.81,-15.95,0,*65
1483480910.99,27283,8.69,72276.5,-12.81,-15.81,-15.99,0,*6F
1483480912.24,27284,8.69,72278.0,-12.79,-15.95,-15.95,0,*66
1483480913.48,27285,8.69,72278.8,-12.81,-15.71,-15.85,0,*6B
1483480914.75,27286,8.69,72282.5,-12.79,-15.81,-15.95,0,*61
1483480916.02,27287,8.69,72280.8,-12.79,-15.81,-15.95,0,*60
1483480917.29,27288,8.69,72286.8,-12.79,-15.85,-15.95,0,*6B
1483480918.59,27289,8.63,72280.0,-12.79,-15.85,-16.09,0,*6C
1483480919.82,27290,8.69,72290.0,-12.81,-15.81,-15.99,0,*6D
1483480921.12,27291,8.69,72296.8,-12.79,-15.85,-16.09,0,*65
1483480922.36,27292,8.69,72290.3,-12.81,-15.99,-16.09,0,*6C
1483480923.6,27293,8.63,72280.8,-12.81,-15.99,-16.09,0,*6D
1483480924.84,27294,8.69,72296.0,-12.81,-15.95,-16.09,0,*66
1483480926.06,27295,8.69,72292.3,-12.81,-15.95,-15.99,0,*6D
1483480927.32,27296,8.63,72276.5,-12.81,-15.85,-15.85,0,*62
1483480928.56,27297,8.63,72268.3,-12.81,-15.85,-15.99,0,*6E
1483480929.78,27298,8.63,72262.3,-12.81,-15.67,-15.95,0,*61
1483480931.02,27299,8.69,72260.0,-12.81,-15.67,-15.85,0,*61
1483480932.29,27300,8.63,72250.3,-12.81,-15.57,-15.81,0,*67
1483480933.53,27301,8.63,72232.5,-12.81,-15.71,-15.85,0,*66
1483480934.75,27302,8.69,72248.3,-12.81,-15.71,-15.95,0,*64
1483480935.99,27303,8.63,72272.3,-12.81,-15.71,-15.85,0,*64
1483480937.23,27304,8.69,72278.0,-12.81,-15.81,-15.95,0,*6D
1483480938.45,27305,8.69,72270.5,-12.81,-15.95,-15.95,0,*69
1483480939.66,27306,8.69,72270.0,-12.81,-15.95,-15.99,0,*66
1483480940.87,27307,8.69,72264.8,-12.85,-15.99,-16.03,0,*6F
1483480942.14,27308,8.63,72280.5,-12.85,-15.89,-16.13,0,*60
1483480943.38,27309,8.69,72284.3,-12.85,-15.89,-16.03,0,*60
1483480944.62,27310,8.69,72276.0,-12.85,-15.85,-16.03,0,*64
1483480945.89,27311,8.63,72266.3,-12.85,-15.89,-16.13,0,*68
1483480947.13,27312,8.69,72278.3,-12.81,-15.81,-15.99,0,*66
1483480948.35,27313,8.69,72260.8,-12.81,-15.71,-15.95,0,*64
1483480949.59,27314,8.69,72272.0,-12.81,-15.71,-15.81,0,*66
1483480950.86,27315,8.69,72270.0,-12.81,-15.57,-15.81,0,*63
1483480952.07,27316,8.69,72268.8,-12.81,-15.67,-15.95,0,*66
1483480953.32,27317,8.69,72270.5,-12.81,-15.71,-15.85,0,*61
1483480954.56,27318,8.69,72282.0,-12.81,-15.67,-15.81,0,*6D
1483480955.8,27319,8.69,72278.3,-12.81,-15.53,-15.57,0,*60
1483480957.07,27320,8.69,72280.0,-12.79,-15.57,-15.71,0,*6D
1483480958.31,27321,8.69,72276.0,-12.81,-15.67,-15.81,0,*67
1483480959.55,27322,8.69,72278.0,-12.81,-15.57,-15.71,0,*68
1483480960.8,27323,8.69,72278.8,-12.81,-15.67,-15.81,0,*65
1483480962.06,27324,8.69,72274.5,-12.79,-15.57,-15.71,0,*69
1483480963.31,27325,8.69,72282.0,-12.81,-15.67,-15.81,0,*63
1483480964.55,27326,8.69,72274.8,-12.81,-15.67,-15.81,0,*60
1483480965.82,27327,8.69,72272.0,-12.81,-15.57,-15.81,0,*62
1483480967.09,27328,8.69,72260.8,-12.79,-15.67,-15.85,0,*6D
1483480968.33,27329,8.63,72262.3,-12.81,-15.71,-15.81,0,*68
1483480969.55,27330,8.69,72266.0,-12.81,-15.67,-15.71,0,*68
1483480970.79,27331,8.69,72270.3,-12.81,-15.49,-15.57,0,*61
1483480972.03,27332,8.69,72268.5,-12.81,-15.53,-15.81,0,*62
1483480973.27,27333,8.69,72270.8,-12.81,-15.57,-15.67,0,*6F
1483480974.48,27334,8.63,72268.8,-12.81,-15.67,-15.67,0,*6B
1483480975.72,27335,8.69,72264.5,-12.81,-15.67,-15.81,0,*62
1483480976.94,27336,8.69,72270.8,-12.81,-15.67,-15.71,0,*6E
1483480978.15,27337,8.69,72266.5,-12.81,-15.71,-15.71,0,*68
1483480979.37,27338,8.69,72274.0,-12.81,-15.67,-15.71,0,*60
1483480980.64,27339,8.69,72274.3,-12.79,-15.53,-15.57,0,*65
1483480981.88,27340,8.69,72280.8,-12.79,-15.67,-15.71,0,*68
1483480983.15,27341,8.69,72276.8,-12.79,-15.57,-15.71,0,*6A
1483480984.39,27342,8.69,72276.3,-12.79,-15.67,-15.71,0,*6A
1483480985.66,27343,8.69,72268.3,-12.79,-15.67,-15.81,0,*64
1483480986.93,27344,8.69,72286.5,-12.79,-15.71,-15.85,0,*60
1483480988.2,27345,8.69,72280.8,-12.79,-15.81,-15.95,0,*6F
1483480989.49,27346,8.69,72280.3,-12.79,-15.81,-15.85,0,*6D
1483480990.74,27347,8.69,72284.0,-12.81,-15.81,-15.95,0,*6A
1483480992.0,27348,8.69,72284.0,-12.81,-15.85,-15.85,0,*60
1483480993.28,27349,8.69,72282.8,-12.79,-15.71,-15.81,0,*69
1483480994.55,27350,8.69,72282.3,-12.81,-15.85,-15.81,0,*6D
1483480995.81,27351,8.69,72278.3,-12.81,-15.81,-15.81,0,*68
1483480997.06,27352,8.69,72286.3,-12.79,-15.71,-15.95,0,*66
1483480998.3,27353,8.69,72266.8,-12.81,-15.67,-15.81,0,*62
1483480999.55,27354,8.69,72264.0,-12.81,-15.71,-15.81,0,*62
1483481000.84,27355,8.69,72254.8,-12.79,-15.57,-15.57,0,*6B
1483481002.08,27356,8.69,72252.5,-12.79,-15.53,-15.67,0,*6F
1483481003.32,27357,8.69,72254.0,-12.79,-15.53,-15.71,0,*69
1483481004.62,27358,8.69,72250.8,-12.79,-15.57,-15.81,0,*6D
1483481005.83,27359,8.69,72256.8,-12.81,-15.53,-15.67,0,*67
1483481007.05,27360,8.69,72252.8,-12.77,-15.49,-15.49,0,*63
1483481008.27,27361,8.69,72252.8,-12.77,-15.53,-15.53,0,*62
1483481009.5,27362,8.69,72250.3,-12.77,-15.57,-15.67,0,*62
1483481010.72,27363,8.69,72258.3,-12.81,-15.67,-15.71,0,*6E
1483481011.99,27364,8.69,72266.8,-12.79,-15.67,-15.81,0,*61
1483481013.23,27365,8.69,72266.3,-12.79,-15.67,-15.71,0,*6F
1483481014.5,27366,8.69,72262.5,-12.79,-15.67,-15.81,0,*63
1483481015.72,27367,8.69,72272.3,-12.81,-15.71,-15.71,0,*6D
1483481016.99,27368,8.69,72276.5,-12.79,-15.71,-15.85,0,*6E
1483481018.29,27369,8.69,72282.0,-12.79,-15.85,-15.85,0,*64
1483481019.56,27370,8.69,72278.3,-12.79,-15.85,-15.95,0,*6D
1483481020.8,27371,8.69,72274.5,-12.79,-15.95,-15.99,0,*61
1483481022.07,27372,8.69,72272.8,-12.79,-15.95,-16.09,0,*68
1483481023.31,27373,8.69,72274.8,-12.81,-15.85,-15.99,0,*65
1483481024.55,27374,8.69,72274.8,-12.81,-15.85,-15.99,0,*62
1483481025.79,27375,8.69,72264.5,-12.79,-15.95,-15.99,0,*65
1483481027.01,27376,8.69,72256.3,-12.81,-15.95,-15.99,0,*61
1483481028.27,27377,8.69,72264.3,-12.79,-15.85,-15.99,0,*66
1483481029.54,27378,8.69,72258.5,-12.79,-15.71,-15.85,0,*6F
1483481030.81,27379,8.69,72270.8,-12.81,-15.85,-15.85,0,*62
1483481032.05,27380,8.69,72272.0,-12.81,-15.85,-15.95,0,*65
1483481033.3,27381,8.69,72276.5,-12.81,-15.85,-15.95,0,*64
1483481034.57,27382,8.69,72268.3,-12.79,-15.85,-15.95,0,*60
1483481035.84,27383,8.69,72268.8,-12.79,-15.85,-15.95,0,*61
1483481037.11,27384,8.69,72264.0,-12.79,-15.85,-15.99,0,*6A
1483481038.35,27385,8.69,72272.5,-12.81,-15.85,-15.95,0,*60
1483481039.6,27386,8.69,72272.5,-12.81,-15.85,-15.95,0,*63
1483481040.84,27387,8.69,72280.5,-12.81,-15.85,-15.95,0,*62
1483481042.11,27388,8.69,72278.8,-12.81,-15.81,-15.85,0,*68
1483481043.38,27389,8.69,72270.5,-12.79,-15.85,-15.95,0,*6B
1483481044.62,27390,8.69,72276.5,-12.81,-15.85,-15.99,0,*68
1483481045.86,27391,8.63,72244.0,-12.79,-15.95,-15.95,0,*63
1483481047.1,27392,8.69,72254.0,-12.81,-15.85,-15.99,0,*6A
1483481048.32,27393,8.69,72268.0,-12.81,-15.95,-15.95,0,*66
1483481049.56,27394,8.69,72260.5,-12.81,-15.85,-15.99,0,*6C
1483481050.83,27395,8.69,72262.8,-12.79,-15.85,-15.99,0,*6A
1483481052.09,27396,8.69,72262.0,-12.79,-15.85,-15.99,0,*69
1483481053.33,27397,8.69,72266.8,-12.81,-15.85,-15.99,0,*6F
1483481054.58,27398,8.69,72264.8,-12.81,-15.95,-16.09,0,*6B
1483481055.82,27399,8.69,72264.0,-12.81,-15.95,-16.09,0,*6A
1483481057.03,27400,8.69,72282.5,-12.81,-15.99,-15.99,0,*6B
1483481058.26,27401,8.69,72282.3,-12.81,-15.99,-16.13,0,*6B
1483481059.54,27402,8.69,72276.3,-12.81,-16.09,-16.13,0,*62
1483481060.8,27403,8.69,72284.5,-12.85,-16.17,-16.27,0,*6F
1483481062.1,27404,8.69,72284.3,-12.87,-16.17,-16.23,0,*6E
1483481063.36,27405,8.69,72288.5,-12.85,-16.17,-16.27,0,*69
1483481064.63,27406,8.69,72288.3,-12.85,-16.27,-16.27,0,*69
1483481065.89,27407,8.69,72294.8,-12.85,-16.27,-16.27,0,*68
1483481067.19,27408,8.69,72290.5,-12.87,-16.23,-16.17,0,*62
1483481068.49,27409,8.69,72282.3,-12.87,-16.09,-16.17,0,*6B
1483481069.79,27410,8.69,72288.0,-12.87,-16.09,-16.17,0,*63
1483481071.09,27411,8.69,72280.0,-12.87,-16.09,-16.23,0,*65
1483481072.36,27412,8.69,72280.8,-12.87,-16.03,-16.17,0,*6B
1483481073.57,27413,8.69,72272.0,-12.85,-15.99,-15.99,0,*6D
1483481074.86,27414,8.69,72268.8,-12.87,-15.81,-15.89,0,*60
1483481076.16,27415,8.69,72274.8,-12.87,-15.89,-15.81,0,*61
1483481077.4,27416,8.69,72272.0,-12.85,-15.71,-15.85,0,*63
1483481078.7,27417,8.69,72272.8,-12.87,-15.89,-15.89,0,*6B
1483481079.94,27418,8.69,72274.3,-12.85,-15.75,-15.89,0,*65
1483481081.21,27419,8.69,72262.5,-12.87,-15.89,-16.03,0,*64
1483481082.48,27420,8.69,72264.3,-12.87,-15.89,-15.95,0,*62
1483481083.72,27421,8.69,72270.8,-12.85,-15.85,-15.99,0,*61
1483481084.99,27422,8.69,72282.5,-12.87,-15.89,-15.95,0,*60
1483481086.27,27423,8.69,72258.3,-12.87,-15.89,-15.95,0,*61
1483481087.51,27424,8.69,72260.5,-12.87,-15.95,-16.03,0,*67
1483481088.78,27425,8.69,72264.5,-12.85,-15.85,-15.89,0,*64
1483481090.02,27426,8.69,72266.0,-12.85,-15.85,-16.03,0,*66
1483481091.26,27427,8.69,72272.3,-12.85,-15.89,-16.03,0,*6B
1483481092.53,27428,8.69,72268.8,-12.87,-15.89,-15.95,0,*6A
1483481093.8,27429,8.69,72258.8,-12.87,-15.89,-16.03,0,*67
1483481095.07,27430,8.69,72270.5,-12.87,-15.95,-16.09,0,*68
1483481096.31,27431,8.69,72272.0,-12.85,-15.85,-16.03,0,*60
1483481097.58,27432,8.69,72278.8,-12.87,-15.81,-15.95,0,*69
1483481098.85,27433,8.69,72270.0,-12.87,-15.89,-15.95,0,*60
1483481100.07,27434,8.69,72268.0,-12.85,-15.75,-15.99,0,*6A
1483481101.34,27435,8.69,72274.3,-12.85,-15.89,-15.89,0,*69
1483481102.61,27436,8.69,72276.5,-12.87,-15.81,-15.95,0,*6D
1483481103.88,27437,8.69,72268.8,-12.87,-15.81,-15.95,0,*6C
1483481105.17,27438,8.69,72278.8,-12.87,-15.81,-15.89,0,*6E
1483481106.41,27439,8.69,72278.5,-12.85,-15.85,-15.99,0,*68
1483481107.65,27440,8.69,72266.8,-12.85,-15.71,-15.89,0,*6C
1483481108.89,27441,8.69,72276.3,-12.85,-15.71,-15.85,0,*61
1483481110.16,27442,8.69,72272.5,-12.87,-15.81,-15.95,0,*6E
1483481111.43,27443,8.69,72276.5,-12.87,-15.67,-15.89,0,*6A
1483481112.69,27444,8.69,72282.3,-12.87,-15.67,-15.89,0,*6D
1483481113.94,27445,8.69,72280.5,-12.85,-15.67,-15.81,0,*66
1483481115.18,27446,8.69,72282.0,-12.85,-15.71,-15.81,0,*62
1483481116.45,27447,8.69,72270.8,-12.87,-15.81,-15.95,0,*6B
1483481117.74,27448,8.69,72260.0,-12.87,-15.81,-15.89,0,*69
1483481119.01,27449,8.69,72260.5,-12.87,-15.81,-15.95,0,*65
1483481120.3,27450,8.69,72256.8,-12.87,-15.81,-15.89,0,*60
1483481121.57,27451,8.69,72270.5,-12.87,-15.89,-15.95,0,*64
1483481122.85,27452,8.69,72272.3,-12.87,-15.75,-15.89,0,*69
1483481124.12,27453,8.69,72270.8,-12.87,-15.89,-15.95,0,*66
1483481125.39,27454,8.69,72262.8,-12.87,-15.89,-15.95,0,*61
1483481126.66,27455,8.69,72266.3,-12.87,-15.89,-16.03,0,*6C
1483481127.9,27456,8.69,72268.3,-12.87,-15.95,-16.03,0,*62
1483481129.17,27457,8.69,72270.0,-12.87,-15.81,-16.03,0,*66
1483481130.41,27458,8.69,72268.3,-12.85,-15.89,-15.99,0,*63
1483481131.65,27459,8.69,72268.3,-12.85,-15.89,-16.03,0,*62
1483481132.89,27460,8.69,72258.3,-12.87,-15.95,-16.03,0,*67
1483481134.13,27461,8.69,72274.0,-12.89,-15.81,-16.03,0,*6D
1483481135.4,27462,8.69,72276.0,-12.87,-15.89,-16.03,0,*68
1483481136.69,27463,8.69,72270.5,-12.87,-15.89,-16.09,0,*63
1483481137.99,27464,8.69,72276.8,-12.87,-15.81,-16.09,0,*6C
1483481139.28,27465,8.69,72272.0,-12.87,-15.81,-15.89,0,*66
1483481140.55,27466,8.69,72264.3,-12.87,-15.81,-15.95,0,*68
1483481141.82,27467,8.69,72262.3,-12.87,-15.81,-15.95,0,*69
1483481143.09,27468,8.69,72272.0,-12.87,-15.81,-15.95,0,*66
1483481144.35,27469,8.69,72270.5,-12.87,-15.67,-15.89,0,*62
1483481145.62,27470,8.69,72278.0,-12.87,-15.63,-15.89,0,*6E
1483481146.87,27471,8.69,72270.3,-12.87,-15.75,-15.95,0,*65
1483481148.11,27472,8.69,72266.3,-12.89,-15.67,-15.89,0,*66
1483481149.38,27473,8.69,72266.0,-12.87,-15.67,-15.81,0,*61
1483481150.65,27474,8.69,72272.3,-12.87,-15.67,-15.81,0,*66
1483481151.9,27475,8.69,72260.5,-12.87,-15.63,-15.75,0,*68
1483481153.12,27476,8.69,72270.0,-12.85,-15.63,-15.75,0,*69
1483481154.36,27477,8.69,72284.8,-12.89,-15.67,-15.81,0,*6B
1483481155.63,27478,8.69,72274.3,-12.87,-15.57,-15.75,0,*62
1483481156.9,27479,8.69,72274.3,-12.87,-15.63,-15.81,0,*6F
1483481158.15,27480,8.69,72260.0,-12.87,-15.63,-15.75,0,*62
1483481159.39,27481,8.69,72270.0,-12.85,-15.57,-15.71,0,*62
1483481160.63,27482,8.69,72250.5,-12.87,-15.63,-15.75,0,*60
1483481161.88,27483,8.69,72266.8,-12.87,-15.63,-15.75,0,*61
1483481163.13,27484,8.69,72266.5,-12.87,-15.63,-15.75,0,*66
1483481164.39,27485,8.69,72256.0,-12.87,-15.63,-15.89,0,*64
1483481165.66,27486,8.69,72246.8,-12.87,-15.75,-15.89,0,*60
1483481166.91,27487,8.69,72234.3,-12.87,-15.75,-15.95,0,*6C
1483481168.16,27488,8.69,72240.0,-12.87,-15.75,-15.95,0,*63
1483481169.4,27489,8.69,72244.5,-12.85,-15.71,-15.85,0,*65
1483481170.68,27490,8.69,72252.3,-12.87,-15.89,-15.95,0,*69
1483481171.92,27491,8.69,72272.3,-12.85,-15.75,-15.89,0,*64
1483481173.16,27492,8.69,72246.8,-12.85,-15.75,-15.89,0,*67
1483481174.41,27493,8.69,72262.0,-12.85,-15.71,-15.85,0,*6E
1483481175.68,27494,8.69,72276.5,-12.87,-15.75,-15.89,0,*63
1483481176.9,27495,8.69,72278.8,-12.85,-15.63,-15.75,0,*64
1483481178.11,27496,8.69,72266.3,-12.85,-15.63,-15.71,0,*63
1483481179.38,27497,8.69,72276.8,-12.87,-15.81,-15.95,0,*66
1483481180.65,27498,8.69,72270.8,-12.87,-15.67,-15.89,0,*6C
1483481181.89,27499,8.69,72270.0,-12.85,-15.71,-15.85,0,*64
1483481183.13,27500,8.69,72252.5,-12.85,-15.71,-15.89,0,*69
1483481184.37,27501,8.69,72250.3,-12.85,-15.71,-15.89,0,*68
1483481185.64,27502,8.69,72256.0,-12.87,-15.89,-16.03,0,*6F
1483481186.91,27503,8.69,72262.3,-12.87,-15.67,-15.89,0,*6F
1483481188.15,27504,8.69,72258.3,-12.85,-15.67,-15.81,0,*62
1483481189.4,27505,8.69,72260.3,-12.85,-15.63,-15.81,0,*67
1483481190.67,27506,8.69,72272.0,-12.87,-15.75,-15.89,0,*69
1483481191.94,27507,8.69,72270.0,-12.87,-15.67,-15.81,0,*63
1483481193.21,27508,8.69,72262.8,-12.85,-15.57,-15.81,0,*6D
1483481194.46,27509,8.69,72272.0,-12.87,-15.75,-15.75,0,*65
1483481195.73,27510,8.69,72262.8,-12.87,-15.67,-15.81,0,*65
1483481196.97,27511,8.69,72272.8,-12.85,-15.57,-15.71,0,*6A
1483481198.21,27512,8.69,72260.3,-12.87,-15.63,-15.67,0,*6B
1483481199.47,27513,8.69,72258.8,-12.87,-15.57,-15.67,0,*6D
1483481200.74,27514,8.69,72258.3,-12.87,-15.63,-15.81,0,*65
1483481201.96,27515,8.69,72260.3,-12.85,-15.53,-15.71,0,*6A
1483481203.18,27516,8.69,72260.8,-12.85,-15.71,-15.75,0,*6D
1483481204.4,27517,8.69,72244.5,-12.85,-15.63,-15.75,0,*6F
1483481205.64,27518,8.69,72234.3,-12.85,-15.63,-15.85,0,*6F
1483481206.89,27519,8.69,72228.8,-12.85,-15.63,-15.85,0,*6E
1483481208.13,27520,8.69,72260.0,-12.85,-15.71,-15.85,0,*67
1483481209.37,27521,8.69,72272.0,-12.85,-15.71,-15.85,0,*66
1483481210.61,27522,8.69,72272.0,-12.87,-15.67,-15.95,0,*61
1483481211.86,27523,8.69,72272.0,-12.85,-15.63,-15.85,0,*67
1483481213.1,27524,8.69,72286.8,-12.85,-15.71,-15.89,0,*6F
1483481214.36,27525,8.69,72272.0,-12.87,-15.81,-16.03,0,*62
1483481215.66,27526,8.69,72268.3,-12.87,-15.89,-16.09,0,*63
1483481216.88,27527,8.69,72282.8,-12.85,-15.75,-15.99,0,*69
1483481218.14,27528,8.69,72270.5,-12.87,-15.81,-16.03,0,*6F
1483481219.39,27529,8.69,72264.5,-12.85,-15.63,-15.89,0,*61
1483481220.64,27530,8.69,72256.8,-12.87,-15.75,-15.95,0,*61
1483481221.88,27531,8.69,72258.8,-12.85,-15.75,-15.85,0,*63
1483481223.1,27532,8.69,72264.0,-12.85,-15.63,-15.75,0,*68
1483481224.32,27533,8.69,72272.0,-12.85,-15.63,-15.75,0,*69
1483481225.56,27534,8.69,72278.0,-12.85,-15.71,-15.89,0,*6E
1483481226.8,27535,8.69,72278.0,-12.85,-15.71,-15.89,0,*6F
1483481228.02,27536,8.69,72284.0,-12.85,-15.63,-15.75,0,*6C
1483481229.26,27537,8.69,72282.3,-12.85,-15.57,-15.71,0,*6E
1483481230.53,27538,8.69,72264.8,-12.85,-15.57,-15.85,0,*6A
1483481231.75,27539,8.69,72262.0,-12.85,-15.63,-15.75,0,*63
1483481233.02,27540,8.69,72260.0,-12.87,-15.67,-15.81,0,*60
1483481234.23,27541,8.69,72254.5,-12.85,-15.63,-15.71,0,*68
1483481235.5,27542,8.69,72266.0,-12.87,-15.67,-15.89,0,*6A
1483481236.74,27543,8.69,72262.0,-12.85,-15.71,-15.89,0,*6E
1483481237.98,27544,8.69,72266.5,-12.85,-15.89,-15.99,0,*6F
1483481239.22,27545,8.69,72270.0,-12.85,-15.85,-15.99,0,*62
1483481240.47,27546,8.69,72268.0,-12.85,-15.85,-16.03,0,*61
1483481241.74,27547,8.69,72270.8,-12.87,-15.95,-16.17,0,*66
1483481242.97,27548,8.69,72272.5,-12.85,-15.99,-16.13,0,*63
1483481244.24,27549,8.69,72268.3,-12.87,-15.95,-16.09,0,*67
1483481245.51,27550,8.69,72284.0,-12.85,-15.89,-16.13,0,*6B
1483481246.78,27551,8.69,72272.8,-12.87,-15.89,-16.03,0,*69
1483481248.02,27552,8.69,72266.5,-12.85,-15.57,-15.75,0,*69
1483481249.29,27553,8.69,72264.3,-12.85,-15.85,-15.89,0,*64
1483481250.59,27554,8.69,72282.5,-12.87,-15.81,-16.09,0,*6E
1483481251.85,27555,8.69,72274.0,-12.87,-15.81,-15.95,0,*69
1483481253.07,27556,8.69,72274.8,-12.85,-15.53,-15.71,0,*6D
1483481254.32,27557,8.69,72274.3,-12.85,-15.71,-15.85,0,*67
1483481255.61,27558,8.69,72276.8,-12.87,-15.89,-15.89,0,*61
1483481256.82,27559,8.69,72278.8,-12.85,-15.99,-15.99,0,*62
1483481258.12,27560,8.69,72278.5,-12.87,-15.89,-16.09,0,*61
1483481259.38,27561,8.69,72278.0,-12.87,-15.81,-16.03,0,*62
1483481260.63,27562,8.69,72272.0,-12.87,-15.95,-16.03,0,*64
1483481261.87,27563,8.69,72272.5,-12.87,-15.95,-16.03,0,*65
1483481263.14,27564,8.69,72276.8,-12.87,-15.95,-16.09,0,*68
1483481264.38,27565,8.69,72280.5,-12.85,-15.99,-16.17,0,*68
1483481265.65,27566,8.69,72288.5,-12.87,-15.95,-16.17,0,*65
1483481266.92,27567,8.69,72288.0,-12.87,-15.95,-16.17,0,*64
1483481268.16,27568,8.69,72290.0,-12.85,-15.95,-16.17,0,*69
1483481269.44,27569,8.69,72280.5,-12.87,-16.03,-16.09,0,*69
1483481270.71,27570,8.69,72278.0,-12.87,-16.03,-16.17,0,*6E
1483481271.97,27571,8.69,72280.5,-12.87,-16.03,-16.23,0,*68
1483481273.27,27572,8.69,72284.5,-12.87,-16.09,-16.23,0,*61
1483481274.54,27573,8.69,72272.3,-12.87,-15.95,-16.09,0,*6E
1483481275.81,27574,8.69,72278.8,-12.87,-15.89,-16.03,0,*6E
1483481277.05,27575,8.69,72284.0,-12.85,-15.85,-16.03,0,*61
1483481278.32,27576,8.69,72294.5,-12.87,-15.89,-16.03,0,*6C
1483481279.57,27577,8.69,72294.3,-12.87,-15.75,-15.95,0,*62
1483481280.84,27578,8.69,72282.5,-12.87,-15.75,-15.81,0,*68
1483481282.09,27579,8.69,72280.3,-12.87,-15.75,-15.95,0,*6C
1483481283.36,27580,8.69,72276.5,-12.87,-15.89,-16.03,0,*65
1483481284.63,27581,8.69,72276.0,-12.87,-15.89,-15.99,0,*64
1483481285.9,27582,8.69,72276.8,-12.87,-15.89,-16.03,0,*67
1483481287.17,27583,8.69,72274.3,-12.87,-15.89,-16.03,0,*66
1483481288.44,27584,8.69,72276.8,-12.87,-16.03,-16.09,0,*6A
1483481289.68,27585,8.69,72276.3,-12.85,-15.89,-16.03,0,*62
1483481290.95,27586,8.69,72290.8,-12.87,-15.95,-16.17,0,*6B
1483481292.22,27587,8.69,72288.8,-12.87,-15.95,-16.09,0,*65
1483481293.5,27588,8.69,72284.3,-12.87,-15.95,-16.17,0,*65
1483481294.79,27589,8.69,72284.0,-12.87,-15.89,-16.09,0,*66
1483481296.09,27590,8.69,72278.0,-12.87,-15.89,-15.89,0,*65
1483481297.36,27591,8.69,72274.0,-12.87,-15.89,-16.03,0,*65
1483481298.62,27592,8.69,72278.8,-12.87,-15.81,-16.03,0,*6E
1483481299.92,27593,8.69,72280.3,-12.87,-15.89,-16.09,0,*6D